Regional Weather Roundup
Issued by NWS

Home | Current Version | Previous Version | Graphics & Text | Print | Product List | Glossary On
Versions: 1 2 3 4 5 6 7 8 9 10 11 12 13 14 15 16 17 18 19 20 21 22 23 24 25 26 27 28 29 30 31 32 33 34 35 36 37 38 39 40 41 42 43 44 45 46 47 48 49 50
000
ASUS43 KLOT 082308
RWRIL

ILLINOIS REGIONAL WEATHER ROUNDUP
NATIONAL WEATHER SERVICE CHICAGO/ROMEOVILLE IL
500 PM CST THU DEC 08 2016

NOTE: "FAIR" INDICATES FEW OR NO CLOUDS BELOW 12,000 FEET WITH NO
SIGNIFICANT WEATHER AND/OR OBSTRUCTIONS TO VISIBILITY.

* THESE STATIONS ARE NOT UNDER NWS QUALITY CONTROL. THEY ALSO MAY NOT
  REPORT WEATHER SUCH AS PRECIPITATION OR FOG.

ILZ001-002-007-009-015-016-024-090000-
NORTHWEST ILLINOIS

CITY           SKY/WX    TMP DP  RH WIND       PRES   REMARKS
MOLINE         CLOUDY    23  13  65 W16G25    30.47R WCI  10
STERLING*      FLURRIES  22  17  81 W18       30.43R WCI   7
SAVANNA*       CLOUDY    23  15  69 W14G24    30.43R WCI  11
$$

ILZ003-004-008-010-011-017-018-090000-
NORTH CENTRAL ILLINOIS

CITY           SKY/WX    TMP DP  RH WIND       PRES   REMARKS
ROCKFORD       FLURRIES  23  15  71 W15       30.40R WCI  10
FREEPORT*      CLOUDY    22  15  75 W16       30.41R WCI   8
ROCHELLE*      CLOUDY    22  16  78 W14G20    30.40R WCI   9
$$

ILZ005-006-012>014-019>023-090000-
NORTHEAST ILLINOIS

CITY           SKY/WX    TMP DP  RH WIND       PRES   REMARKS
CHICAGO-OHARE  CLOUDY    22  14  71 W15       30.35R WCI   9
CHICAGO-MIDWAY FLURRIES  23  13  65 W15G23    30.37R WCI  10
AURORA         CLOUDY    22  16  78 W15       30.39R WCI   9
LANSING*       FLURRIES  21  16  81 W12G17    30.38R WCI   9
JOLIET*        CLOUDY    23  17  77 W10G17    30.41R WCI  13
WAUKEGAN       CLOUDY    24  15  68 W10G22    30.32R WCI  14
DUPAGE AIRPORT CLOUDY    22  14  71 W16G23    30.37R WCI   8
KANKAKEE*      FLURRIES  22  15  74 W17G24    30.41R WCI   7
WHEELING       CLOUDY    23  15  71 W12G20    30.36R WCI  12
MORRIS*        FLURRIES  22  17  79 W15G22    30.41R WCI   9
ROMEOVILLE*    FLURRIES  21  18  87 W15       30.39R WCI   8
NORTHERLY ISL    N/A     23  15  71 W18         N/A  WCI   9
$$

LMZ740>746-090000-
SOUTHERN LAKE MICHIGAN

STATION/POSITION SKY/WX   TEMP    WIND        PRES    VSBY  WAVE
                          AIR SEA DIR/SP/G                  HT/PER
                          (F)     (DEG/KT/KT) (MB)    (MI)  (FT/S)
HARRISON CRIB              24     280/ 23/ 26   N/A
BURNHAM HARBOR             24     270/ 11/ 21   N/A
CALUMET HARBOR             22     250/  9/ 17 1027.4R
BURNS HARBOR               24     280/ 19/ 25 1028.1R
$$

ILZ025>027-034>036-040-047-049-050-058-095>099-090000-
WEST-CENTRAL ILLINOIS

CITY           SKY/WX    TMP DP  RH WIND       PRES   REMARKS
QUINCY         CLEAR     22  12  65 NW10      30.51R WCI  11
GALESBURG*     FLURRIES  20  14  75 W17       30.49R WCI   6
MACOMB*        CLOUDY    21  12  68 W16       30.53S WCI   7
JACKSONVILLE*  CLOUDY    23  13  64 NW10      30.51R WCI  12
PITTSFIELD*    MOCLDY    25  13  60 W10       30.53R WCI  15
$$

ILZ028>032-037-038-041>044-048-051>054-059>061-090000-
CENTRAL ILLINOIS

CITY           SKY/WX    TMP DP  RH WIND       PRES   REMARKS
PONTIAC        MIX PCPN  23  18  80 W20G25    30.44R WCI   8
BLOOMINGTON    FLURRIES  19  13  77 W20       30.45R WCI   3
DECATUR        CLOUDY    22  12  65 W17       30.48R WCI   8
PEORIA         CLOUDY    21  12  68 NW12      30.49R WCI   9
LACON*         FLURRIES  21  15  76 W9G20     30.46R WCI  11
LINCOLN*       CLOUDY    22  13  69 W8G18     30.50R WCI  13
SPRINGFIELD    CLOUDY    24  14  65 NW8       30.50R WCI  15
TAYLORVILLE    CLOUDY    23  13  65 W16G23    30.50R WCI  10
$$

ILZ033-039-045-046-055>057-062-063-090000-
EAST-CENTRAL ILLINOIS

CITY           SKY/WX    TMP DP  RH WIND       PRES   REMARKS
CHAMPAIGN      CLOUDY    22  12  65 NW18G26   30.46R WCI   7
RANTOUL*       CLOUDY    23  15  73 W16       30.44R WCI  10
MATTOON        CLOUDY    22  11  62 NW18      30.46R WCI   7
PARIS*         CLOUDY    22  15  74 NW20G25   30.47R WCI   7
$$

ILZ079-100>102-090000-
SOUTHWEST ILLINOIS

CITY           SKY/WX    TMP DP  RH WIND       PRES   REMARKS
ALTON          PTCLDY    25  14  63 W12       30.53R WCI  14
BELLEVILLE     CLEAR     26  13  59 NW12      30.52R WCI  15
CAHOKIA*       CLEAR     28  12  51 NW13      30.54R WCI  17
SPARTA*        CLEAR     27  14  56 W7        30.53R WCI  20
$$

ILZ064>066-069>071-074>076-080>082-084>086-088>090-092>094-090000-
SOUTH-CENTRAL ILLINOIS

CITY           SKY/WX    TMP DP  RH WIND       PRES   REMARKS
CARBONDALE     CLEAR     28  14  55 NW8       30.52R WCI  20
CAIRO*         CLEAR     32  15  50 NW7       30.52R WCI  25
EFFINGHAM*     CLOUDY    25  17  69 W15G23    30.51R WCI  13
MARION         PTCLDY    30  14  51 MISG      30.52R
CENTRALIA*     MOCLDY    28  17  65 NW7G16    30.50R WCI  20
SALEM*         CLOUDY    28  15  58 NW12      30.51R WCI  18
METROPOLIS*    CLEAR     31  14  49 NW7       30.51R WCI  24
$$

ILZ067-068-072-073-078-083-087-091-090000-
SOUTHEAST ILLINOIS

CITY           SKY/WX    TMP DP  RH WIND       PRES   REMARKS
LAWRENCEVILLE  CLOUDY    26  15  63 NW17      30.50R WCI  13
FLORA*         CLOUDY    28  16  63 NW9G17    30.51R WCI  19
FAIRFIELD*     MOCLDY    27  15  61 CALM      30.50R
HARRISBURG*    CLEAR     28  17  61 NW7       30.51R WCI  21
ROBINSON*      CLOUDY    24  15  68 NW14      30.49R WCI  11
CARMI*         PTCLDY    28  17  65 NW10      30.50R WCI  18
$$

ABBREVIATIONS USED IN REMARKS
   TC - TEMPERATURE IN CELSIUS
  WCI - WIND CHILL INDEX
   HX - HEAT INDEX
  VSB - VISIBILITY
$$





USA.gov is the U.S. government's official web portal to all federal, state and local government web resources and services.